Location: Gwatt
(46.7204°N, 7.6223°E)
Time: 19:01:08
(UTC+00:00)

Courier 1B Rocket - Pass Details

Date: 28 January 2021
Orbit: 920 x 1202 km, 28.3° (Epoch: 05 March)

Event Time Altitude Azimuth Distance (km) Brightness Sun altitude
Rises 07:17:32 0° 240° (WSW) 3,689 7.7 2.1°
Reaches altitude 10° 07:21:24 10° 218° (SW) 2,796 7.3 2.7°
Maximum altitude 07:25:03 15° 185° (S) 2,487 7.5 3.2°
Drops below altitude 10° 07:28:51 10° 153° (SSE) 2,910 8.7 3.7°
Sets 07:33:01 0° 132° (SE) 3,928 10.5 4.4°
